Regional Weather Roundup
Issued by NWS Cleveland, OH

Home | Current Version | Previous Version | Graphics & Text | Print | Product List | Glossary On
Versions: 1 2 3 4 5 6 7 8 9 10 11 12 13 14 15 16 17 18 19 20 21 22 23 24 25 26 27 28 29 30 31 32 33 34 35 36 37 38 39 40 41 42 43 44 45 46 47 48 49 50
695
ASUS41 KCLE 180300
RWRCLE
OHIO REGIONAL WEATHER ROUNDUP
NATIONAL WEATHER SERVICE WILMINGTON, OH
1000 PM EST TUE JAN 17 2017

NOTE: "FAIR" INDICATES FEW OR NO CLOUDS BELOW 12,000 FEET WITH NO
SIGNIFICANT WEATHER AND/OR OBSTRUCTIONS TO VISIBILITY.

OHZ001>008-015>018-024>027-034-035-043-044-180400-
   NORTHWEST OHIO

CITY           SKY/WX    TMP DP  RH WIND       PRES   REMARKS
DEFIANCE       CLOUDY    41  37  86 W8        29.96R
FINDLAY        CLOUDY    44  39  82 W18       29.94R
TOLEDO EXPRESS CLOUDY    40  40 100 W17       29.93S
TOLEDO EXEC    CLOUDY    42  40  92 W15       29.93S
LIMA           CLOUDY    43  42  97 W17       29.96R
$$

OHZ009>014-019>023-028>033-038-089-180400-
   NORTHEAST OHIO

CITY           SKY/WX    TMP DP  RH WIND       PRES   REMARKS
CLE-HOPKINS    CLOUDY    48  42  80 W17       29.93R
CLE-LAKEFRONT  CLOUDY    41  39  93 W13       29.90R
CUY CO. ARPT   CLOUDY    46  32  57 W15G25    29.90R
LORAIN-ELYRIA  CLOUDY    45  40  82 W12       29.91R
ASHTABULA      CLOUDY    45  43  93 W18G26    29.88R
AKRON-CANTON   CLOUDY    59  41  51 W12       29.90R
WOOSTER        CLOUDY    46  42  86 W9        29.91S
MANSFIELD      CLOUDY    45  41  86 W15G22    29.92R
YOUNGSTOWN     CLOUDY    50  42  74 W14       29.88R
$$

OHZ042-051>053-060>062-070>072-077>081-180400-
  SOUTHWEST OHIO

CITY           SKY/WX    TMP DP  RH WIND       PRES   REMARKS
CINC-COVINGTON DRIZZLE   45  40  82 W9        30.04R
CINC-LUNKEN    CLOUDY    47  41  80 W8        30.06R
HAMILTON       CLOUDY    46  43  89 W12       30.05R
DAYTON         NOT AVBL
WRIGHT-PAT AFB CLOUDY    45  45 100 W9        29.99S
DAYTON GENERAL LGT RAIN  45  42  89 W9        30.00S
WILMINGTON     CLOUDY    46  40  79 W12       30.00S
$$

OHZ036-037-039>041-045>050-054>059-063>069-073>076-082>088-180400-
  CENTRAL AND SOUTHEAST OHIO

CITY           SKY/WX    TMP DP  RH WIND       PRES   REMARKS
COLUMBUS       CLOUDY    48  41  76 W12       29.97S
OSU AIRPORT    CLOUDY    46  43  89 W8        29.97R
BOLTON FIELD   NOT AVBL
RICKENBACK AFB NOT AVBL
NEWARK         CLOUDY    48  41  76 W12       29.96R
MARION         CLOUDY    45  41  86 W15       29.95R
LANCASTER      CLOUDY    49  41  74 W8G18     29.98S
ZANESVILLE     CLOUDY    50  42  74 W10       29.95R
NEW PHILLY     CLOUDY    49  43  80 W10G17    29.93S
$$




USA.gov is the U.S. government's official web portal to all federal, state and local government web resources and services.